{"data":{"norad_id":58890,"intl_designator":"2024-020Q","name":"STARLINK-31230","alt_names":[],"object_type":"PAYLOAD","status":"ACTIVE","operator":null,"country":"US","launch_date":"2024-01-29","launch_site_code":"AFWTR","launch_vehicle":null,"mission":null,"orbit_class":"UNKNOWN","rcs_meters":null,"size_class":null,"mass_kg":null,"dimensions":null,"purposes":["comms"],"wikipedia_slug":null,"has_3d_model":false,"image_url":null,"decayed_at":null,"tle_current":{"epoch":"2026-09-20T00:50:10.025664Z","epoch_age_seconds":195705,"freshness":"STALE","line1":"1 58890U 24020Q   26263.03483826 -.00000095  00000+0  83111-5 0  9994","line2":"2 58890  53.1610 133.5341 0000896 114.8027 245.3069 15.34384977147916","mean_motion":15.34384977,"eccentricity":8.96e-5,"inclination_deg":53.161,"raan_deg":133.5341,"arg_perigee_deg":114.8027,"mean_anomaly_deg":245.3069,"bstar":8.3111e-6,"rev_number":14791,"period_min":93.848676934746,"perigee_km":462.13494880704,"apogee_km":463.3608353797,"semimajor_km":6840.8848920934,"source":"CELESTRAK","updated_at":"2026-09-21T09:00:33.994400Z"}}}